Location: Wavehorne
(51.0500°N, 0.8333°E)
Time: 07:51:13
(UTC+00:00)

NOSS 2-2 (C) - Pass Details

Date: 26 October 2021
Orbit: 444 x 1761 km, 63.3° (Epoch: 06 December)

Event Time Altitude Azimuth Distance (km) Brightness Sun altitude
Exits shadow 04:11:15 31° 208° (SSW) 1,717 5.4 -23.7°
Drops below altitude 10° 04:16:08 10° 175° (S) 3,147 7.1 -22.9°
Sets 04:19:36 0° 168° (SSE) 4,335 7.9 -22.4°
